Orbital Elements at Epoch 2457179.5 (2015-Jun-06.0) TDB
Reference: JPL 10 (heliocentric ecliptic J2000)
Element | Value | Uncertainty (1-sigma) | Units |
e | .9786764762641811 | 4.3971e-06 | |
a | 2.51626146560583 | 4.9743e-07 | au |
q | .0536555610873724 | 1.1072e-05 | au |
i | 12.58923564712983 | 0.0013887 | deg |
node | 359.5244877541514 | 0.018222 | deg |
peri | 49.04947677107452 | 0.016821 | deg |
M | 337.760658834809 | 0.00021393 | deg |
tp | 2457269.564054382795 (2015-Sep-04.06405438) | 0.00089039 | TDB |
period | 1457.914572962026 3.99 | 0.00043232 1.184e-06 | d yr |
n | .2469280482385142 | 7.3222e-08 | deg/d |
Q | 4.978867370124287 | 9.8426e-07 | au |
|
| | Orbit Determination Parameters
Additional Information
|